Location: ?
(35.3544°N, 139.4507°E)
Time: 06:30:25
(UTC+00:00)

Cosmos 2322 Rocket - Pass Details

Date: 03 August 2024
Orbit: 830 x 851 km, 71.0° (Epoch: 10 September)

Event Time Altitude Azimuth Distance (km) Brightness Sun altitude
Exits shadow 16:18:16 50° 34° (NE) 1,071 2.9 -33.2°
Drops below altitude 10° 16:22:24 10° 24° (NNE) 2,473 5.5 -32.9°
Sets 16:24:52 0° 23° (NNE) 3,415 6.5 -32.6°
